FW3819 Weather Reports


time (UTC)temp
C
wind
direction
speed
KPH
gust
KPH
rain 1hr
cm
rain 24hr
cm
rain mn
cm
humidity
%
barometer
mb
20260504214029 26 156 4.8 24.1 0.00 0.00 0.00 29 1010.6
20260504213827 26 176 4.8 22.5 0.00 0.00 0.00 28 1010.8
20260504213031 26 138 6.4 22.5 0.00 0.00 0.00 28 1010.8
20260504212528 26 187 6.4 19.3 0.00 0.00 0.00 28 1010.8
20260504212317 26 160 6.4 25.7 0.00 0.00 0.00 28 1010.8
20260504211515 26 156 4.8 25.7 0.00 0.00 0.00 27 1010.9
20260504211009 26 73 6.4 24.1 0.00 0.00 0.00 29 1010.7
20260504210503 26 227 4.8 24.1 0.00 0.00 0.00 28 1010.9
20260504210043 26 172 3.2 12.9 0.00 0.00 0.00 29 1010.9
20260504205003 26 54 4.8 19.3 0.00 0.00 0.00 28 1010.8
20260504204503 26 194 4.8 19.3 0.00 0.00 0.00 28 1010.8
20260504204002 26 152 4.8 17.7 0.00 0.00 0.00 27 1010.9
20260504203503 26 179 3.2 17.7 0.00 0.00 0.00 28 1011.0
20260504203308 26 175 3.2 12.9 0.00 0.00 0.00 28 1011.0
20260504202502 26 175 3.2 12.9 0.00 0.00 0.00 27 1011.1
20260504202002 26 153 4.8 14.5 0.00 0.00 0.00 28 1011.1
20260504201501 26 143 6.4 19.3 0.00 0.00 0.00 28 1011.1
20260504201002 25 223 8.0 25.7 0.00 0.00 0.00 28 1011.2
20260504200502 26 217 6.4 25.7 0.00 0.00 0.00 28 1011.4
20260504200003 26 152 6.4 14.5 0.00 0.00 0.00 28 1011.2
20260504195754 26 205 3.2 14.5 0.00 0.00 0.00 27 1011.2
20260504195002 26 192 3.2 12.9 0.00 0.00 0.00 27 1011.2
20260504194501 26 105 4.8 25.7 0.00 0.00 0.00 28 1011.3
20260504194313 26 166 6.4 25.7 0.00 0.00 0.00 28 1011.4
20260504193457 26 149 8.0 22.5 0.00 0.00 0.00 27 1011.5
20260504192949 25 139 8.0 25.7 0.00 0.00 0.00 28 1011.5
20260504192447 26 187 8.0 25.7 0.00 0.00 0.00 28 1011.6
20260504191947 26 155 4.8 17.7 0.00 0.00 0.00 27 1011.8
20260504191447 26 129 4.8 25.7 0.00 0.00 0.00 29 1011.9
20260504190948 26 234 6.4 25.7 0.00 0.00 0.00 28 1012.0
20260504190449 26 246 6.4 22.5 0.00 0.00 0.00 27 1012.0
20260504185949 26 201 6.4 22.5 0.00 0.00 0.00 28 1012.2
20260504185447 25 242 6.4 19.3 0.00 0.00 0.00 29 1012.2
20260504184948 25 186 6.4 22.5 0.00 0.00 0.00 29 1012.4
20260504184450 25 217 6.4 25.7 0.00 0.00 0.00 29 1012.5
20260504183947 24 181 8.0 38.6 0.00 0.00 0.00 32 1012.5
20260504183448 25 190 6.4 38.6 0.00 0.00 0.00 29 1012.6
20260504182947 25 242 6.4 25.7 0.00 0.00 0.00 29 1012.7
20260504182448 25 222 6.4 25.7 0.00 0.00 0.00 29 1012.8
20260504182253 25 241 6.4 25.7 0.00 0.00 0.00 29 1012.8
20260504181447 25 196 4.8 17.7 0.00 0.00 0.00 28 1012.9
20260504180947 25 257 3.2 12.9 0.00 0.00 0.00 30 1012.9
20260504180447 25 143 3.2 12.9 0.00 0.00 0.00 28 1013.0
20260504175947 25 187 3.2 12.9 0.00 0.00 0.00 30 1013.1
20260504175449 24 210 3.2 22.5 0.00 0.00 0.00 29 1013.2
20260504174946 24 167 6.4 22.5 0.00 0.00 0.00 31 1013.3
20260504174447 23 234 6.4 19.3 0.00 0.00 0.00 31 1013.3
20260504173948 23 269 4.8 19.3 0.00 0.00 0.00 32 1013.3
20260504173543 23 201 4.8 14.5 0.00 0.00 0.00 32 1013.5
20260504173523 24 129 4.8 11.3 0.00 0.00 0.00 30 1013.5
20260504172730 23 210 4.8 17.7 0.00 0.00 0.00 34 1013.6
20260504171939 23 215 6.4 17.7 0.00 0.00 0.00 31 1013.7
20260504171441 23 150 6.4 17.7 0.00 0.00 0.00 31 1013.7
20260504170942 23 223 6.4 17.7 0.00 0.00 0.00 32 1013.8
20260504170440 23 234 4.8 14.5 0.00 0.00 0.00 30 1014.0
20260504160437 21 272 6.4 19.3 0.00 0.00 0.00 32 1014.7
20260504150931 20 125 6.4 19.3 0.00 0.00 0.00 33 1015.2
20260504150429 20 205 6.4 19.3 0.00 0.00 0.00 34 1015.3
20260504140930 16 82 1.6 8.0 0.00 0.00 0.00 45 1015.3
20260504140722 16 188 1.6 8.0 0.00 0.00 0.00 43 1015.4
20260504130430 13 82 1.6 8.0 0.00 0.00 0.00 52 1015.9
20260504130222 13 166 3.2 8.0 0.00 0.00 0.00 52 1016.0
20260504100403 7 82 1.6 4.8 0.00 0.00 0.00 83 1016.2
20260504081902 7 265 1.6 4.8 0.00 0.00 0.00 82 1016.6
20260504081403 7 248 1.6 4.8 0.00 0.00 0.00 82 1016.4
20260504081157 7 129 1.6 4.8 0.00 0.00 0.00 82 1016.4
20260504080401 7 73 1.6 4.8 0.00 0.00 0.00 83 1016.6
20260504050650 5 54 1.6 1.6 0.00 0.00 0.00 81 1017.2
20260504045857 5 54 1.6 1.6 0.00 0.00 0.00 81 1017.1
20260504045356 5 54 1.6 1.6 0.00 0.00 0.00 81 1017.1
20260504044858 5 69 1.6 1.6 0.00 0.00 0.00 81 1017.1
20260504044356 5 54 1.6 1.6 0.00 0.00 0.00 81 1017.1
20260504044151 5 326 1.6 1.6 0.00 0.00 0.00 81 1017.2
20260504043357 5 73 1.6 1.6 0.00 0.00 0.00 80 1017.1
20260504042858 5 54 1.6 4.8 0.00 0.00 0.00 80 1017.0
20260504042357 5 279 1.6 4.8 0.00 0.00 0.00 80 1017.1
20260504042152 6 54 1.6 1.6 0.00 0.00 0.00 79 1017.0
20260504041654 6 82 1.6 1.6 0.00 0.00 0.00 79 1017.0
20260504040857 6 54 1.6 4.8 0.00 0.00 0.00 79 1017.0
20260504040356 6 54 1.6 4.8 0.00 0.00 0.00 79 1017.0
20260504035852 6 11 1.6 1.6 0.00 0.00 0.00 78 1017.0
20260504035649 6 54 0.0 1.6 0.00 0.00 0.00 78 1017.1
20260504034851 6 54 1.6 4.8 0.00 0.00 0.00 78 1017.2
20260504034353 6 54 1.6 4.8 0.00 0.00 0.00 78 1017.1
20260504033850 6 54 1.6 1.6 0.00 0.00 0.00 77 1017.3
20260504033351 6 73 1.6 4.8 0.00 0.00 0.00 76 1017.1
20260504032853 6 89 1.6 4.8 0.00 0.00 0.00 76 1017.0
20260504032351 6 82 1.6 1.6 0.00 0.00 0.00 76 1017.0
20260504031849 7 28 1.6 1.6 0.00 0.00 0.00 75 1016.8
20260504031347 7 110 1.6 4.8 0.00 0.00 0.00 75 1016.9
20260504030847 7 117 1.6 4.8 0.00 0.00 0.00 74 1016.9
20260504030345 7 117 1.6 1.6 0.00 0.00 0.00 74 1016.9
20260504025845 7 54 1.6 4.8 0.00 0.00 0.00 73 1016.8
20260504025343 7 54 1.6 4.8 0.00 0.00 0.00 72 1016.9
20260504024844 7 89 1.6 1.6 0.00 0.00 0.00 72 1016.8
20260504024343 7 82 0.0 1.6 0.00 0.00 0.00 71 1016.7
20260504023844 7 73 1.6 1.6 0.00 0.00 0.00 70 1016.7
20260504023338 7 100 1.6 4.8 0.00 0.00 0.00 69 1016.8
20260504023129 7 54 1.6 4.8 0.00 0.00 0.00 68 1016.7
20260504022331 7 89 0.0 1.6 0.00 0.00 0.00 67 1016.7
20260504022123 8 73 0.0 1.6 0.00 0.00 0.00 67 1016.6
20260504021621 8 54 0.0 1.6 0.00 0.00 0.00 67 1016.6
20260504020830 8 54 0.0 4.8 0.00 0.00 0.00 66 1016.6
20260504020333 8 54 1.6 4.8 0.00 0.00 0.00 66 1016.6
20260504020123 8 143 1.6 4.8 0.00 0.00 0.00 64 1016.6
20260504015623 8 54 1.6 4.8 0.00 0.00 0.00 63 1016.5
20260504014830 8 326 1.6 4.8 0.00 0.00 0.00 63 1016.5
20260504014330 8 73 1.6 4.8 0.00 0.00 0.00 64 1016.4
20260504014126 9 345 1.6 4.8 0.00 0.00 0.00 62 1016.3
20260504013632 9 134 1.6 4.8 0.00 0.00 0.00 61 1016.3
20260504012830 9 117 1.6 4.8 0.00 0.00 0.00 60 1016.3
20260504012332 10 117 1.6 4.8 0.00 0.00 0.00 59 1016.2
20260504011830 10 100 1.6 4.8 0.00 0.00 0.00 58 1016.1
20260504011331 10 100 1.6 4.8 0.00 0.00 0.00 57 1016.1
20260504010830 10 28 1.6 4.8 0.00 0.00 0.00 58 1016.1
20260504010331 10 28 1.6 4.8 0.00 0.00 0.00 58 1016.0
20260504005825 10 100 1.6 4.8 0.00 0.00 0.00 55 1016.1
20260504005613 11 11 1.6 4.8 0.00 0.00 0.00 53 1016.2
20260504004813 11 82 1.6 4.8 0.00 0.00 0.00 53 1016.1
20260504004308 11 100 1.6 4.8 0.00 0.00 0.00 56 1015.9
20260504003804 11 54 1.6 4.8 0.00 0.00 0.00 50 1015.9
20260504003304 11 116 1.6 1.6 0.00 0.00 0.00 48 1015.9
20260504002804 12 82 1.6 4.8 0.00 0.00 0.00 46 1015.7
20260504002304 12 89 1.6 4.8 0.00 0.00 0.00 49 1015.8
20260504001804 12 54 1.6 4.8 0.00 0.00 0.00 48 1015.8
20260504001306 13 110 1.6 4.8 0.00 0.00 0.00 47 1015.6
20260504000805 13 82 0.0 4.8 0.00 0.00 0.00 46 1015.6
20260504000305 13 234 0.0 4.8 0.00 0.00 0.00 44 1015.5
20260503235804 14 54 0.0 4.8 0.00 0.00 0.00 42 1015.5
20260503235304 14 11 1.6 4.8 0.00 0.00 0.00 41 1015.5
20260503234804 15 11 1.6 4.8 0.00 0.00 0.00 39 1015.5
20260503234302 15 54 0.0 8.0 0.00 0.00 0.00 38 1015.4
20260503233802 15 82 1.6 8.0 0.00 0.00 0.00 34 1015.4
20260503233302 16 260 1.6 8.0 0.00 0.00 0.00 32 1015.4
20260503232802 16 143 3.2 12.9 0.00 0.00 0.00 31 1015.4
20260503232301 16 143 3.2 12.9 0.00 0.00 0.00 30 1015.3
20260503231802 16 222 3.2 11.3 0.00 0.00 0.00 30 1015.2
20260503231301 16 143 3.2 11.3 0.00 0.00 0.00 30 1015.2
20260503231057 16 255 3.2 12.9 0.00 0.00 0.00 28 1015.1
20260503230303 16 276 3.2 12.9 0.00 0.00 0.00 27 1015.1
20260503225803 16 203 3.2 8.0 0.00 0.00 0.00 30 1015.2
20260503225304 16 171 3.2 11.3 0.00 0.00 0.00 27 1015.2
20260503224801 16 241 3.2 14.5 0.00 0.00 0.00 27 1015.2
20260503224302 16 294 4.8 22.5 0.00 0.00 0.00 27 1015.2
20260503223802 16 289 3.2 22.5 0.00 0.00 0.00 28 1015.2
20260503223302 16 353 3.2 12.9 0.00 0.00 0.00 27 1015.3
20260503222803 16 11 3.2 17.7 0.00 0.00 0.00 27 1015.3
20260503222304 16 265 3.2 17.7 0.00 0.00 0.00 27 1015.3
20260503221856 16 260 6.4 29.0 0.00 0.00 0.00 26 1015.4
20260503221837 16 21 6.4 29.0 0.00 0.00 0.00 27 1015.3
20260503220802 17 241 6.4 22.5 0.00 0.00 0.00 28 1015.4
20260503220301 17 217 4.8 22.5 0.00 0.00 0.00 26 1015.3
20260503215802 17 234 4.8 19.3 0.00 0.00 0.00 27 1015.3
20260503215300 17 117 4.8 19.3 0.00 0.00 0.00 26 1015.4
20260503215107 17 234 4.8 32.2 0.00 0.00 0.00 27 1015.3